Stations météo

Publicité
Le Havre/Octeville, France (7046): Température de l'air & dewpoint: 16.02.2017 07:00:00 - 22.02.2017 07:00:00 (CET)Le Havre/Octeville, France (7046): Vitesse du vent & gusts: 16.02.2017 07:00:00 - 22.02.2017 07:00:00 (CET)Le Havre/Octeville, France (7046): Direction du vent: 16.02.2017 07:00:00 - 22.02.2017 07:00:00 (CET)Le Havre/Octeville, France (7046): reduced air pressure: 16.02.2017 07:00:00 - 22.02.2017 07:00:00 (CET)Le Havre/Octeville, France (7046): visibility: 16.02.2017 07:00:00 - 22.02.2017 07:00:00 (CET)Le Havre/Octeville, France (7046): Quantités de précipitations: 16.02.2017 07:00:00 - 22.02.2017 07:00:00 (CET)
Date & Time tt [°C] td [°C] ff [km/h] ff [knt] fx [km/h] fx [knt] dd ppp [hPa] vv [km] rr [mm]
22.02.2017 07:00:00 - - - - - - - - - -
22.02.2017 06:00:00 8,9 7,7 34 19 53 28 SW 1017,0 20 0,0
22.02.2017 05:00:00 9,2 7,5 37 20 56 30 SW 1017,0 20 0,0
22.02.2017 04:00:00 9,1 7,5 28 15 50 27 SW 1017,5 20 0,0
22.02.2017 03:00:00 9,1 7,9 29 16 45 24 SW 1017,6 26 0,0
22.02.2017 02:00:00 9,5 7,9 29 16 43 23 SW 1018,1 37 0,0
22.02.2017 01:00:00 9,6 8,5 29 16 43 23 SSW 1018,6 26 0,0
22.02.2017 00:00:00 9,3 9,2 27 15 41 22 SSW 1019,1 15 0,0
21.02.2017 23:00:00 9,4 8,9 28 15 45 24 SSW 1019,5 16 0,0
21.02.2017 22:00:00 8,7 8,6 27 15 45 24 SW 1019,8 13 0,0
21.02.2017 21:00:00 8,6 8,6 27 15 42 23 SW 1019,9 12 0,0
21.02.2017 20:00:00 8,8 8,8 23 12 39 21 SW 1020,3 6 0,0
21.02.2017 19:00:00 8,8 8,8 23 13 38 20 SW 1020,5 9 0,0
21.02.2017 18:00:00 8,7 8,7 19 10 31 17 SW 1020,4 16 0,0
21.02.2017 17:00:00 8,8 8,8 25 14 38 21 SW 1020,5 14 0,0
21.02.2017 16:00:00 8,8 8,8 20 11 33 18 SW 1020,9 16 0,0
21.02.2017 15:00:00 8,9 8,9 23 12 39 21 SW 1021,2 18 0,0
21.02.2017 14:00:00 8,9 8,9 20 11 36 20 SW 1021,7 0,2 0,0
21.02.2017 13:00:00 8,9 8,9 24 13 42 23 SW 1022,1 0,1 0,0
21.02.2017 12:00:00 8,8 8,8 26 14 44 24 SW 1022,1 0,1 0,0
21.02.2017 11:00:00 8,6 8,6 23 12 34 18 SW 1022,0 0,6 0,0
21.02.2017 10:00:00 8,3 8,3 24 13 39 21 SW 1022,0 0,2 0,0
21.02.2017 09:00:00 8,2 8,2 24 13 36 19 SW 1022,0 0,1 0,0
21.02.2017 08:00:00 8,1 8,1 18 10 30 16 SSW 1022,0 0,3 0,0
21.02.2017 07:00:00 7,9 7,9 19 10 35 19 SW 1022,1 0,2 0,2
21.02.2017 06:00:00 7,9 7,9 23 13 32 17 SW 1022,2 0,2 0,2
21.02.2017 05:00:00 7,8 7,8 20 11 35 19 WSW 1022,4 0,2 0,2
21.02.2017 04:00:00 7,9 7,9 21 11 33 18 WSW 1022,2 0,2 0,0
21.02.2017 03:00:00 8,0 8,0 21 11 30 16 WSW 1022,4 0,1 0,0
21.02.2017 02:00:00 8,2 8,2 21 11 37 20 WSW 1022,7 0,1 0,2
21.02.2017 01:00:00 8,4 8,4 26 14 39 21 WSW 1023,0 0,1 0,0
21.02.2017 00:00:00 8,6 8,6 25 13 37 20 SW 1022,9 0,1 0,0
20.02.2017 23:00:00 8,8 8,8 23 13 39 21 SW 1022,8 0,1 0,0
20.02.2017 22:00:00 8,8 8,8 25 14 35 19 SW 1022,8 0,1 0,0
20.02.2017 21:00:00 8,5 8,5 24 13 37 20 SW 1022,9 0,1 0,0
20.02.2017 20:00:00 8,3 8,3 21 11 30 16 SW 1023,1 0,1 0,0
20.02.2017 19:00:00 8,8 8,8 22 12 36 19 SW 1022,5 0,1 0,0
20.02.2017 18:00:00 9,1 9,1 22 12 31 17 WSW 1022,5 0,1 0,0
20.02.2017 17:00:00 9,1 9,1 16 9 35 19 W 1022,2 0,1 0,0
20.02.2017 16:00:00 9,6 9,6 22 12 35 19 SW 1022,1 0,1 0,0
20.02.2017 15:00:00 9,5 9,5 23 12 32 18 SW 1022,0 0,1 0,0
20.02.2017 14:00:00 9,2 9,2 19 10 30 16 SW 1022,8 0,1 0,0
20.02.2017 13:00:00 9,3 9,3 21 12 33 18 WSW 1023,1 0,1 0,0
20.02.2017 12:00:00 9,6 9,6 20 11 33 18 SSW 1023,1 0,2 0,0
20.02.2017 11:00:00 9,1 9,1 20 11 28 15 SW 1023,1 0,1 0,0
20.02.2017 10:00:00 8,9 8,9 21 11 30 16 SW 1023,1 0,2 0,0
20.02.2017 09:00:00 8,5 8,5 20 11 29 16 SW 1023,2 1,5 0,0
20.02.2017 08:00:00 8,1 8,1 20 11 31 17 SW 1022,8 1,1 0,0
20.02.2017 07:00:00 8,1 8,0 23 12 33 18 SW 1022,7 6 0,0
20.02.2017 06:00:00 8,3 8,2 22 12 32 18 SW 1022,9 6 0,0
20.02.2017 05:00:00 8,2 8,1 22 12 33 18 SSW 1022,9 6 0,0
20.02.2017 04:00:00 7,8 7,7 17 9 31 17 SSW 1023,4 1,9 0,2
20.02.2017 03:00:00 7,8 7,8 16 9 32 17 SSW 1024,1 1,5 0,0
20.02.2017 02:00:00 7,8 7,8 16 9 28 15 SSW 1024,4 0,7 0,0
20.02.2017 01:00:00 7,8 7,7 18 10 29 16 SSW 1024,6 0,7 0,0
20.02.2017 00:00:00 8,2 7,3 19 10 30 16 SW 1024,9 10 0,0
19.02.2017 23:00:00 8,6 7,2 19 11 27 15 SSW 1025,2 10 0,0
19.02.2017 22:00:00 8,6 7,5 18 10 28 15 SSW 1025,1 10 0,0
19.02.2017 21:00:00 8,6 7,5 19 11 28 15 SW 1025,3 8 0,0
19.02.2017 20:00:00 8,5 7,6 16 9 24 13 SW 1025,2 9 0,0
19.02.2017 19:00:00 8,4 7,6 14 7 26 14 WSW 1025,3 6 0,0
19.02.2017 18:00:00 9,1 7,4 20 11 26 14 SW 1024,9 9 0,0
19.02.2017 17:00:00 9,0 7,8 21 12 28 15 SW 1024,5 6 0,0
19.02.2017 16:00:00 8,3 7,5 18 10 26 14 SW 1025,3 4,7 0,0
19.02.2017 15:00:00 8,2 7,4 18 10 25 14 SW 1025,3 4,8 0,0
19.02.2017 14:00:00 7,6 6,5 17 9 24 13 SW 1025,6 6 0,0
19.02.2017 13:00:00 7,1 6,2 16 9 25 14 SW 1026,1 6 0,0
19.02.2017 12:00:00 7,3 6,4 12 7 23 12 SSW 1026,5 6 0,0
19.02.2017 11:00:00 7,2 6,3 16 9 23 12 SW 1026,3 7 0,0
19.02.2017 10:00:00 6,5 5,1 13 7 24 13 SW 1026,2 11 0,0
19.02.2017 09:00:00 5,5 3,7 14 7 22 12 SSW 1025,9 13 0,0
19.02.2017 08:00:00 5,6 3,4 15 8 34 19 SSW 1025,1 16 0,0
19.02.2017 07:00:00 4,9 3,2 9 5 21 12 SSW 1024,9 12 0,0
19.02.2017 06:00:00 5,0 3,2 8 5 14 8 S 1025,1 11 0,0
19.02.2017 05:00:00 5,6 3,1 9 5 21 11 S 1025,0 12 0,0
19.02.2017 04:00:00 6,2 3,5 10 5 16 9 S 1025,0 11 0,0
19.02.2017 03:00:00 6,4 3,9 9 5 18 10 SSE 1025,2 11 0,0
19.02.2017 02:00:00 6,9 4,0 9 5 17 9 S 1025,6 12 0,0
19.02.2017 01:00:00 6,0 4,3 10 5 14 8 SSE 1025,7 7 0,0
19.02.2017 00:00:00 6,2 4,4 8 4 11 6 SSE 1025,9 7 0,0
18.02.2017 23:00:00 6,4 4,4 8 4 14 8 SE 1025,9 8 0,0
18.02.2017 22:00:00 7,1 4,2 10 5 15 8 ESE 1025,7 10 0,0
18.02.2017 21:00:00 6,9 3,7 10 6 13 7 E 1025,5 14 0,0
18.02.2017 20:00:00 7,4 3,3 7 4 15 8 E 1025,4 22 0,0
18.02.2017 19:00:00 8,2 3,8 6 3 20 11 E 1025,0 25 0,0
18.02.2017 18:00:00 10,6 4,1 13 7 22 12 E 1024,6 25 0,0
18.02.2017 17:00:00 11,3 4,7 15 8 24 13 E 1024,5 27 0,0
18.02.2017 16:00:00 11,5 4,5 16 8 23 12 ESE 1024,5 20 0,0
18.02.2017 15:00:00 11,3 4,3 14 7 23 13 ESE 1024,9 15 0,0
18.02.2017 14:00:00 10,8 4,9 11 6 20 11 ESE 1025,6 13 0,0
18.02.2017 13:00:00 9,6 4,6 12 7 18 10 ESE 1026,3 12 0,0
18.02.2017 12:00:00 7,6 4,2 10 6 19 11 ESE 1026,9 8 0,0
18.02.2017 11:00:00 4,8 3,6 11 6 23 12 ESE 1027,1 4,4 0,0
18.02.2017 10:00:00 3,6 3,5 14 8 25 14 E 1026,8 0,2 0,0
18.02.2017 09:00:00 2,8 2,5 9 5 16 9 E 1026,7 2,0 0,0
18.02.2017 08:00:00 2,1 1,8 11 6 14 7 E 1026,6 3,3 0,0
18.02.2017 07:00:00 3,0 2,3 8 4 11 6 E 1026,5 6 0,0
18.02.2017 06:00:00 2,9 2,2 8 5 12 7 E 1026,6 7 0,0
18.02.2017 05:00:00 4,1 3,2 7 4 12 6 E 1026,6 6 0,0
18.02.2017 04:00:00 4,6 4,0 9 5 13 7 ESE 1026,7 5 0,0
18.02.2017 03:00:00 3,7 3,4 9 5 13 7 E 1027,1 2,9 0,0
18.02.2017 02:00:00 3,7 3,6 10 5 11 6 E 1027,6 1,8 0,2
18.02.2017 01:00:00 4,5 4,2 9 5 13 7 E 1027,9 2,0 0,0
18.02.2017 00:00:00 5,1 4,7 9 5 14 8 E 1028,0 2,5 0,0
17.02.2017 23:00:00 4,9 4,5 9 5 13 7 E 1028,3 1,8 0,0
17.02.2017 22:00:00 4,9 4,3 9 5 13 7 E 1028,6 1,9 0,0
17.02.2017 21:00:00 5,3 4,9 9 5 11 6 E 1028,6 2,1 0,0
17.02.2017 20:00:00 6,8 5,7 9 5 12 6 E 1028,5 4,1 0,0
17.02.2017 19:00:00 7,8 5,9 7 4 10 5 E 1028,4 6 0,0
17.02.2017 18:00:00 9,4 5,8 5 3 7 4 ENE 1028,1 26 0,0
17.02.2017 17:00:00 10,3 5,9 0 0 5 3 N 1028,6 26 0,0
17.02.2017 16:00:00 9,2 6,1 5 3 9 5 WSW 1028,9 17 0,0
17.02.2017 15:00:00 8,1 7,3 4 2 8 4 W 1029,1 4,2 0,0
17.02.2017 14:00:00 7,1 7,1 0 0 11 6 N 1029,7 0,3 0,0
17.02.2017 13:00:00 6,3 6,3 4 2 9 5 E 1030,3 3,8 0,0
17.02.2017 12:00:00 5,4 5,4 4 2 9 5 S 1030,6 0,3 0,0
17.02.2017 11:00:00 5,4 5,4 5 3 10 6 SSW 1030,4 0,8 0,0
17.02.2017 10:00:00 5,4 5,4 4 2 9 5 S 1030,2 0,8 0,0
17.02.2017 09:00:00 5,3 5,3 5 3 9 5 SSW 1030,2 2,9 0,0
17.02.2017 08:00:00 5,2 5,2 4 2 16 9 SW 1030,0 1,8 0,0
17.02.2017 07:00:00 5,0 5,0 9 5 18 10 W 1029,9 0,2 0,0
17.02.2017 06:00:00 4,6 4,6 11 6 15 8 WSW 1030,1 0,1 0,0
17.02.2017 05:00:00 4,7 4,7 9 5 13 7 SW 1030,2 0,1 0,0
17.02.2017 04:00:00 4,7 4,7 6 3 14 7 SSW 1030,3 0,1 0,0
17.02.2017 03:00:00 5,2 5,2 4 2 14 8 S 1030,5 0,1 0,0
17.02.2017 02:00:00 6,1 6,1 8 4 11 6 SSW 1030,2 0,2 0,0
17.02.2017 01:00:00 6,1 6,1 7 4 9 5 SSW 1030,9 0,1 0,0
17.02.2017 00:00:00 5,6 5,6 0 0 4 2 N 1031,0 0,1 0,0
16.02.2017 23:00:00 4,5 4,5 0 0 8 4 N 1031,4 1,7 0,0
16.02.2017 22:00:00 3,2 3,1 2 1 5 3 WSW 1031,6 0,2 0,0
16.02.2017 21:00:00 3,3 3,0 0 0 5 3 N 1031,6 0,3 0,0
16.02.2017 20:00:00 4,2 4,1 0 0 4 2 N 1031,4 0,1 0,0
16.02.2017 19:00:00 5,7 5,4 3 2 6 3 SSW 1031,4 0,2 0,0
16.02.2017 18:00:00 7,2 7,1 4 2 10 5 SSW 1030,9 4,1 0,0
16.02.2017 17:00:00 7,1 6,8 8 4 12 7 SSW 1030,9 0,1 0,0
16.02.2017 16:00:00 8,5 7,6 8 4 11 6 SW 1030,9 0,3 0,0
16.02.2017 15:00:00 9,1 8,0 5 3 10 6 W 1031,0 20 0,0
16.02.2017 14:00:00 8,2 8,1 3 1 12 7 W 1031,8 10 0,0
16.02.2017 13:00:00 7,6 7,3 5 3 11 6 WNW 1032,3 0,4 0,0
16.02.2017 12:00:00 7,4 6,8 10 5 14 8 W 1032,6 0,3 0,0
16.02.2017 11:00:00 8,2 7,4 9 5 16 9 SW 1032,2 5 0,0
16.02.2017 10:00:00 7,7 7,1 6 3 11 6 SSW 1032,1 9 0,0
16.02.2017 09:00:00 5,5 4,8 5 3 10 6 SW 1032,4 3,5 0,0
16.02.2017 08:00:00 6,6 6,3 5 3 10 6 S 1032,0 1,9 0,0
16.02.2017 07:00:00 7,0 6,4 7 4 11 6 SSW 1032,1 7 0,0

tt = Température de l'air
td = dewpoint
ff = Vitesse du vent
fx = gusts
dd = Direction du vent
ppp = reduced air pressure
vv = visibility
rr = Quantités de précipitations

stations d'obs. à proximité